Sand Point, AK

7:28 AM AKDT on July 26, 2017 (GMT -0800)
Sand Point

Weather History for PASD - January, 2013

Change the Weather History Date:

Monday, January 14, 2013

  Actual Average Record
Temperature  
Mean Temperature 36 °F -  
Max Temperature 39 °F 33 °F 44 °F (2015)
Min Temperature 32 °F 28 °F 12 °F (1998)
Degree Days  
Heating Degree Days 30    
Moisture  
Dew Point 32 °F    
Average Humidity 86    
Maximum Humidity 100    
Minimum Humidity 75    
Precipitation  
Precipitation 0.00 in - - ()
Sea Level Pressure  
Sea Level Pressure 29.80 in    
Wind  
Wind Speed 10 mph (SW)    
Max Wind Speed 23 mph    
Max Gust Speed 29 mph    
Visibility 10 miles    
Events      
Averages and records for this station are not official NWS values.
T = Trace of Precipitation, MM = Missing Value Source: NWS Daily Summary

Daily Weather History Graph

Daily Weather History Graph

Search for Another Location

Airport or City:

Trip Planner

Search our weather history database for the weather conditions in past years. The results will help you decide how hot, cold, wet, or windy it might be!

Date:

Astronomy

Jan. 14, 2013 Rise Set
Actual Time 9:59 AM AKST 5:43 PM AKST
Civil Twilight 9:16 AM AKST 6:26 PM AKST
Nautical Twilight 8:29 AM AKST 7:13 PM AKST
Astronomical Twilight 7:46 AM AKST 7:57 PM AKST
Moon 10:55 AM AKST (1/14) 10:32 PM AKST (1/14)
Length of Visible Light 9h 10m
Length of Day
7h 43m
Waxing Crescent, 12% of the Moon is Illuminated
Jan 14
Waxing Crescent
Jan 18
First Quarter
Jan 26
Full
Feb 3
Last Quarter
Feb 9
New

Hourly Weather History & Observations

Time (AKST) Temp. Windchill Dew Point Humidity Pressure Visibility Wind Dir Wind Speed Gust Speed Precip Events Conditions
12:16 AM 39.2 °F 29.6 °F 39.2 °F 100% 29.25 in 3.0 mi SSE 19.6 mph 24.2 mph N/A   Overcast
12:36 AM 39.2 °F 28.7 °F 37.4 °F 93% 29.25 in 6.0 mi South 23.0 mph 28.8 mph N/A   Overcast
12:56 AM 39.2 °F 28.7 °F 37.4 °F 93% 29.26 in 5.0 mi South 23.0 mph 26.5 mph N/A   Overcast
1:16 AM 39.2 °F 29.3 °F 39.2 °F 100% 29.29 in 9.0 mi South 20.7 mph - N/A   Overcast
1:36 AM 39.2 °F 30.2 °F 39.2 °F 100% 29.30 in 7.0 mi South 17.3 mph - N/A   Overcast
1:56 AM 39.2 °F 30.2 °F 39.2 °F 100% 29.30 in 5.0 mi South 17.3 mph 21.9 mph N/A   Overcast
2:16 AM 39.2 °F 30.2 °F 39.2 °F 100% 29.31 in 10.0 mi South 17.3 mph 20.7 mph N/A   Overcast
2:36 AM 39.2 °F 37.0 °F 39.2 °F 100% 29.32 in 10.0 mi South 3.5 mph 23.0 mph N/A   Overcast
2:56 AM 39.2 °F 30.5 °F 37.4 °F 93% 29.37 in 10.0 mi WSW 16.1 mph - N/A   Overcast
3:16 AM 39.2 °F 30.2 °F 35.6 °F 87% 29.41 in 10.0 mi WSW 17.3 mph 26.5 mph N/A   Overcast
3:36 AM 39.2 °F 30.5 °F 35.6 °F 87% 29.44 in 10.0 mi West 16.1 mph - N/A   Overcast
3:56 AM 39.2 °F 30.8 °F 35.6 °F 87% 29.47 in 10.0 mi West 15.0 mph - N/A   Overcast
4:16 AM 39.2 °F 31.6 °F 35.6 °F 87% 29.51 in 10.0 mi WSW 12.7 mph - N/A   Overcast
4:36 AM 39.2 °F 35.0 °F 35.6 °F 87% 29.54 in 10.0 mi SSW 5.8 mph - N/A   Overcast
4:56 AM 39.2 °F - 35.6 °F 87% 29.54 in 10.0 mi Calm Calm - N/A   Overcast
5:16 AM 39.2 °F 32.5 °F 35.6 °F 87% 29.56 in 10.0 mi SW 10.4 mph - N/A   Overcast
5:36 AM 39.2 °F 32.5 °F 35.6 °F 87% 29.59 in 10.0 mi WSW 10.4 mph 17.3 mph N/A   Overcast
5:56 AM 37.4 °F 30.8 °F 33.8 °F 87% 29.59 in 10.0 mi West 9.2 mph - N/A   Overcast
6:16 AM 37.4 °F 33.8 °F 35.6 °F 93% 29.61 in 10.0 mi West 4.6 mph - N/A   Mostly Cloudy
6:36 AM 37.4 °F 28.9 °F 32.0 °F 81% 29.65 in 10.0 mi West 13.8 mph 19.6 mph N/A   Partly Cloudy
6:56 AM 37.4 °F 28.9 °F 33.8 °F 87% 29.69 in 10.0 mi West 13.8 mph - N/A   Scattered Clouds
7:16 AM 35.6 °F 28.6 °F 33.8 °F 93% 29.70 in 10.0 mi WNW 9.2 mph - N/A   Scattered Clouds
7:36 AM 35.6 °F 28.0 °F 32.0 °F 87% 29.71 in 10.0 mi WNW 10.4 mph - N/A   Scattered Clouds
7:56 AM 35.6 °F 27.5 °F 30.2 °F 81% 29.72 in 10.0 mi WNW 11.5 mph 18.4 mph N/A   Scattered Clouds
8:16 AM 35.6 °F 25.9 °F 30.2 °F 81% 29.74 in 10.0 mi West 16.1 mph 20.7 mph N/A   Scattered Clouds
8:36 AM 35.6 °F 29.2 °F 28.4 °F 75% 29.76 in 10.0 mi WSW 8.1 mph - N/A   Scattered Clouds
8:56 AM 35.6 °F 27.5 °F 28.4 °F 75% 29.78 in 10.0 mi West 11.5 mph - N/A   Scattered Clouds
9:16 AM 33.8 °F - 30.2 °F 87% 29.81 in 10.0 mi Calm Calm - N/A   Scattered Clouds
9:56 AM 33.8 °F 29.6 °F 28.4 °F 81% 29.84 in 10.0 mi NW 4.6 mph - N/A   Partly Cloudy
10:16 AM 33.8 °F 30.8 °F 30.2 °F 87% 29.86 in 10.0 mi NW 3.5 mph - N/A   Partly Cloudy
10:36 AM 33.8 °F - 28.4 °F 81% 29.88 in 10.0 mi Calm Calm - N/A   Partly Cloudy
10:56 AM 32.0 °F - 30.2 °F 93% 29.89 in 10.0 mi Calm Calm - N/A   Mostly Cloudy
11:16 AM 33.8 °F - 30.2 °F 87% 29.89 in 10.0 mi Calm Calm - N/A   Mostly Cloudy
11:36 AM 33.8 °F - 30.2 °F 87% 29.90 in 10.0 mi Calm Calm - N/A   Mostly Cloudy
11:56 AM 33.8 °F - 30.2 °F 87% 29.92 in 10.0 mi Calm Calm - N/A   Mostly Cloudy
12:16 PM 35.6 °F 32.8 °F 30.2 °F 81% 29.92 in 10.0 mi SSE 3.5 mph - N/A   Mostly Cloudy
12:36 PM 35.6 °F 32.8 °F 30.2 °F 81% 29.92 in 10.0 mi South 3.5 mph - N/A   Mostly Cloudy
12:56 PM 35.6 °F 32.8 °F 30.2 °F 81% 29.93 in 10.0 mi WNW 3.5 mph - N/A   Mostly Cloudy
1:16 PM 35.6 °F - 30.2 °F 81% 29.94 in 10.0 mi Calm Calm - N/A   Mostly Cloudy
1:36 PM 35.6 °F - 30.2 °F 81% 29.94 in 10.0 mi Calm Calm - N/A   Mostly Cloudy
1:56 PM 37.4 °F - 30.2 °F 75% 29.94 in 10.0 mi Calm Calm - N/A   Mostly Cloudy
2:16 PM 37.4 °F - 30.2 °F 75% 29.94 in 10.0 mi Calm Calm - N/A   Mostly Cloudy
2:36 PM 37.4 °F 34.9 °F 30.2 °F 75% 29.93 in 10.0 mi West 3.5 mph - N/A   Mostly Cloudy
2:56 PM 37.4 °F 34.9 °F 30.2 °F 75% 29.95 in 10.0 mi SW 3.5 mph - N/A   Mostly Cloudy
3:16 PM 37.4 °F - 30.2 °F 75% 29.96 in 10.0 mi Calm Calm - N/A   Mostly Cloudy
3:36 PM 37.4 °F 33.8 °F 30.2 °F 75% 29.97 in 10.0 mi South 4.6 mph - N/A   Mostly Cloudy
3:56 PM 37.4 °F 33.8 °F 30.2 °F 75% 29.97 in 10.0 mi South 4.6 mph - N/A   Mostly Cloudy
4:16 PM 37.4 °F 34.9 °F 30.2 °F 75% 29.98 in 10.0 mi SSW 3.5 mph - N/A   Mostly Cloudy
4:36 PM 37.4 °F - 30.2 °F 75% 29.98 in 10.0 mi Calm Calm - N/A   Overcast
4:56 PM 37.4 °F - 30.2 °F 75% 29.99 in 10.0 mi Calm Calm - N/A   Scattered Clouds
5:16 PM 35.6 °F - 30.2 °F 81% 30.01 in 10.0 mi Calm Calm - N/A   Scattered Clouds
5:36 PM 33.8 °F - 30.2 °F 87% 30.00 in 10.0 mi Calm Calm - N/A   Scattered Clouds
5:56 PM 35.6 °F - 30.2 °F 81% 30.01 in 10.0 mi Calm Calm - N/A   Mostly Cloudy
6:16 PM 35.6 °F - 30.2 °F 81% 30.02 in 10.0 mi Calm Calm - N/A   Mostly Cloudy
6:36 PM 35.6 °F - 32.0 °F 87% 30.03 in 10.0 mi Calm Calm - N/A   Mostly Cloudy
6:56 PM 35.6 °F - 30.2 °F 81% 30.03 in 10.0 mi Calm Calm - N/A   Scattered Clouds
7:16 PM 35.6 °F - 30.2 °F 81% 30.04 in 10.0 mi Calm Calm - N/A   Scattered Clouds
7:36 PM 35.6 °F 32.8 °F 30.2 °F 81% 30.06 in 10.0 mi ENE 3.5 mph - N/A   Scattered Clouds
7:56 PM 35.6 °F 32.8 °F 30.2 °F 81% 30.05 in 10.0 mi ENE 3.5 mph - N/A   Scattered Clouds
8:16 PM 35.6 °F - 32.0 °F 87% 30.06 in 10.0 mi Calm Calm - N/A   Overcast
8:36 PM 35.6 °F - 32.0 °F 87% 30.06 in 10.0 mi Calm Calm - N/A   Overcast
8:56 PM 35.6 °F - 32.0 °F 87% 30.07 in 10.0 mi Calm Calm - N/A   Overcast
9:16 PM 35.6 °F - 32.0 °F 87% 30.06 in 10.0 mi Calm Calm - N/A   Overcast
9:36 PM 35.6 °F - 32.0 °F 87% 30.06 in 10.0 mi Calm Calm - N/A   Overcast
9:56 PM 35.6 °F - 32.0 °F 87% 30.06 in 10.0 mi Calm Calm - N/A   Overcast
10:16 PM 35.6 °F - 32.0 °F 87% 30.08 in 10.0 mi Calm Calm - N/A   Overcast
10:36 PM 35.6 °F - 33.8 °F 93% 30.07 in 10.0 mi Calm Calm - N/A   Overcast
10:56 PM 35.6 °F - 33.8 °F 93% 30.07 in 10.0 mi Calm Calm - N/A   Overcast
11:16 PM 35.6 °F - 33.8 °F 93% 30.08 in 10.0 mi Calm Calm - N/A   Overcast
11:36 PM 33.8 °F - 32.0 °F 93% 30.08 in 10.0 mi Calm Calm - N/A   Overcast
11:56 PM 33.8 °F - 32.0 °F 93% 30.08 in 10.0 mi Calm Calm - N/A   Overcast